LOT2CM EPWA-EHAM

Flight info

Callsign LOT2CM
Flight time 1h 41m
Altitude 36000
Route LOLSI T174 INDIG DCT GOVEN DCT NORKU
Aircraft B738/M-SDGIJ1LRWY/SB1

Departure

Time 2026-05-06 11:26
Airport Warsaw Chopin Airport (EPWA)

Arrival

Time 2026-05-06 13:07
Airport Amsterdam Airport Schiphol (EHAM)
Time Latitude Longitude Altitude Speed Heading
2026-05-06 11:00 52.17375 20.97047 342 ft 0 kts 241°
2026-05-06 11:17 52.17380 20.97060 342 ft 2 kts 241°
2026-05-06 11:17 52.17387 20.97082 342 ft 2 kts 241°
2026-05-06 11:17 52.17394 20.97103 343 ft 2 kts 241°
2026-05-06 11:17 52.17402 20.97124 343 ft 2 kts 256°
2026-05-06 11:18 52.17400 20.97148 344 ft 2 kts 301°
2026-05-06 11:18 52.17389 20.97164 344 ft 2 kts 338°
2026-05-06 11:18 52.17378 20.97172 344 ft 0 kts 330°
2026-05-06 11:18 52.17376 20.97174 344 ft 0 kts 329°
2026-05-06 11:20 52.17386 20.97165 344 ft 4 kts 332°
2026-05-06 11:20 52.17434 20.97123 343 ft 10 kts 332°
2026-05-06 11:20 52.17514 20.97052 342 ft 14 kts 331°
2026-05-06 11:21 52.17597 20.96978 342 ft 12 kts 332°
2026-05-06 11:21 52.17646 20.96923 342 ft 6 kts 292°
2026-05-06 11:21 52.17617 20.96806 340 ft 14 kts 237°
2026-05-06 11:21 52.17560 20.96657 338 ft 15 kts 238°
2026-05-06 11:22 52.17495 20.96519 335 ft 15 kts 233°
2026-05-06 11:22 52.17451 20.96384 334 ft 8 kts 255°
2026-05-06 11:22 52.17477 20.96322 335 ft 8 kts 333°
2026-05-06 11:22 52.17527 20.96282 335 ft 8 kts 332°
2026-05-06 11:23 52.17575 20.96219 337 ft 8 kts 296°
2026-05-06 11:23 52.17578 20.96132 338 ft 7 kts 253°
2026-05-06 11:23 52.17569 20.96101 339 ft 0 kts 235°
2026-05-06 11:24 52.17566 20.96096 339 ft 2 kts 233°
2026-05-06 11:24 52.17516 20.96043 340 ft 9 kts 207°
2026-05-06 11:24 52.17459 20.95997 341 ft 9 kts 206°
2026-05-06 11:25 52.17405 20.95986 341 ft 7 kts 153°
2026-05-06 11:25 52.17360 20.96025 340 ft 10 kts 152°
2026-05-06 11:25 52.17130 20.96225 339 ft 73 kts 152°
2026-05-06 11:25 52.16481 20.96793 335 ft 138 kts 152°
2026-05-06 11:26 52.15481 20.97670 461 ft 177 kts 154°
2026-05-06 11:26 52.14405 20.98625 1157 ft 181 kts 155°
2026-05-06 11:26 52.13270 20.99582 1774 ft 191 kts 157°
2026-05-06 11:26 52.12038 21.00580 2305 ft 202 kts 161°
2026-05-06 11:27 52.10652 21.00819 2644 ft 217 kts 198°
2026-05-06 11:27 52.09321 20.99521 3147 ft 230 kts 220°
2026-05-06 11:27 52.08034 20.97905 3771 ft 243 kts 217°
2026-05-06 11:27 52.06645 20.96240 4389 ft 255 kts 217°
2026-05-06 11:28 52.05237 20.94475 5251 ft 257 kts 221°
2026-05-06 11:28 52.04104 20.92307 6096 ft 258 kts 240°
2026-05-06 11:28 52.03558 20.89549 6919 ft 263 kts 261°
2026-05-06 11:28 52.03439 20.86585 7766 ft 265 kts 265°
2026-05-06 11:29 52.03378 20.83657 8603 ft 266 kts 265°
2026-05-06 11:29 52.03310 20.80665 9408 ft 267 kts 265°
2026-05-06 11:29 52.03238 20.77648 10154 ft 271 kts 265°
2026-05-06 11:29 52.03165 20.74534 10652 ft 285 kts 265°
2026-05-06 11:30 52.03088 20.71250 11099 ft 300 kts 265°
2026-05-06 11:30 52.03003 20.67811 11536 ft 315 kts 265°
2026-05-06 11:30 52.02912 20.64180 11937 ft 331 kts 265°
2026-05-06 11:30 52.02815 20.60328 12391 ft 346 kts 265°
2026-05-06 11:31 52.02760 20.56454 13100 ft 352 kts 270°
2026-05-06 11:31 52.03143 20.52475 13860 ft 361 kts 282°
2026-05-06 11:31 52.03956 20.48586 14658 ft 367 kts 287°
2026-05-06 11:31 52.04869 20.44724 15445 ft 370 kts 287°
2026-05-06 11:32 52.05789 20.40816 16198 ft 374 kts 287°
2026-05-06 11:32 52.06691 20.36905 16945 ft 377 kts 287°
2026-05-06 11:32 52.07610 20.32855 17683 ft 381 kts 285°
2026-05-06 11:32 52.08522 20.28804 18431 ft 384 kts 285°
2026-05-06 11:33 52.09432 20.24745 19142 ft 387 kts 285°
2026-05-06 11:33 52.10358 20.20595 19802 ft 392 kts 285°
2026-05-06 11:33 52.11285 20.16432 20501 ft 395 kts 285°
2026-05-06 11:33 52.12226 20.12196 21130 ft 399 kts 285°
2026-05-06 11:34 52.13165 20.07959 21790 ft 402 kts 285°
2026-05-06 11:34 52.14108 20.03696 22382 ft 406 kts 285°
2026-05-06 11:34 52.15077 19.99308 22979 ft 410 kts 285°
2026-05-06 11:34 52.16022 19.94917 23577 ft 413 kts 283°
2026-05-06 11:35 52.16766 19.90433 24188 ft 412 kts 278°
2026-05-06 11:35 52.17161 19.85817 24718 ft 413 kts 269°
2026-05-06 11:35 52.17104 19.81158 25322 ft 412 kts 262°
2026-05-06 11:35 52.16792 19.76559 25856 ft 413 kts 259°
2026-05-06 11:36 52.16391 19.71883 26382 ft 416 kts 259°
2026-05-06 11:36 52.15974 19.67258 26973 ft 417 kts 259°
2026-05-06 11:36 52.15551 19.62613 27502 ft 419 kts 258°
2026-05-06 11:36 52.15121 19.57866 27952 ft 423 kts 258°
2026-05-06 11:37 52.14687 19.53103 28513 ft 424 kts 258°
2026-05-06 11:37 52.14258 19.48402 29047 ft 424 kts 258°
2026-05-06 11:37 52.13829 19.43704 29821 ft 419 kts 258°
2026-05-06 11:37 52.13400 19.39043 30556 ft 415 kts 258°
2026-05-06 11:38 52.12976 19.34445 31198 ft 411 kts 257°
2026-05-06 11:38 52.12552 19.29874 31719 ft 410 kts 257°
2026-05-06 11:38 52.12125 19.25323 32195 ft 408 kts 257°
2026-05-06 11:38 52.11694 19.20748 32629 ft 407 kts 257°
2026-05-06 11:39 52.11268 19.16244 32996 ft 407 kts 256°
2026-05-06 11:39 52.10840 19.11729 33391 ft 406 kts 256°
2026-05-06 11:39 52.10408 19.07194 33804 ft 404 kts 256°
2026-05-06 11:39 52.09976 19.02680 34162 ft 403 kts 256°
2026-05-06 11:40 52.09543 18.98185 34473 ft 403 kts 256°
2026-05-06 11:40 52.09108 18.93693 34745 ft 403 kts 256°
2026-05-06 11:40 52.08675 18.89239 35024 ft 402 kts 257°
2026-05-06 11:40 52.08237 18.84747 35183 ft 404 kts 257°
2026-05-06 11:41 52.07795 18.80225 35327 ft 406 kts 257°
2026-05-06 11:41 52.07356 18.75749 35546 ft 406 kts 257°
2026-05-06 11:41 52.06908 18.71185 35714 ft 406 kts 257°
2026-05-06 11:42 52.06008 18.62121 35736 ft 412 kts 257°
2026-05-06 11:42 52.05094 18.52942 35742 ft 411 kts 257°
2026-05-06 11:43 52.04171 18.43751 35741 ft 412 kts 257°
2026-05-06 11:43 52.03239 18.34581 35745 ft 412 kts 257°
2026-05-06 11:44 52.01834 18.20861 35741 ft 413 kts 257°
2026-05-06 11:44 52.00890 18.11746 35745 ft 412 kts 256°
2026-05-06 11:45 52.00021 18.02509 35741 ft 415 kts 260°
2026-05-06 11:45 51.99922 17.93126 35736 ft 417 kts 267°
2026-05-06 11:46 52.00170 17.83786 35739 ft 419 kts 268°
2026-05-06 11:46 52.00473 17.74360 35740 ft 419 kts 268°
2026-05-06 11:47 52.00762 17.64960 35736 ft 418 kts 268°
2026-05-06 11:47 52.01041 17.55494 35738 ft 420 kts 268°
2026-05-06 11:48 52.01311 17.46098 35735 ft 418 kts 268°
2026-05-06 11:48 52.01574 17.36706 35727 ft 418 kts 268°
2026-05-06 11:49 52.01826 17.27364 35720 ft 416 kts 268°
2026-05-06 11:49 52.02073 17.17945 35714 ft 417 kts 268°
2026-05-06 11:50 52.02311 17.08556 35730 ft 417 kts 268°
2026-05-06 11:50 52.02541 16.99215 35734 ft 417 kts 268°
2026-05-06 11:51 52.02763 16.89841 35739 ft 419 kts 268°
2026-05-06 11:51 52.02980 16.80385 35732 ft 419 kts 268°
2026-05-06 11:52 52.03191 16.70972 35740 ft 418 kts 268°
2026-05-06 11:52 52.03392 16.61609 35723 ft 418 kts 268°
2026-05-06 11:53 52.03582 16.52334 35750 ft 419 kts 268°
2026-05-06 11:53 52.03768 16.43033 35744 ft 417 kts 268°
2026-05-06 11:54 52.03946 16.33700 35728 ft 417 kts 267°
2026-05-06 11:54 52.04117 16.24292 35726 ft 418 kts 267°
2026-05-06 11:55 52.04282 16.14883 35728 ft 419 kts 267°
2026-05-06 11:55 52.04438 16.05401 35724 ft 420 kts 267°
2026-05-06 11:56 52.04588 15.95929 35722 ft 419 kts 267°
2026-05-06 11:56 52.04731 15.86441 35736 ft 421 kts 267°
2026-05-06 11:57 52.04868 15.76972 35738 ft 419 kts 268°
2026-05-06 11:57 52.04994 15.67579 35738 ft 419 kts 268°
2026-05-06 11:58 52.05112 15.58109 35740 ft 418 kts 268°
2026-05-06 11:58 52.05223 15.48697 35737 ft 419 kts 268°
2026-05-06 11:59 52.05329 15.39248 35738 ft 418 kts 268°
2026-05-06 11:59 52.05425 15.29804 35737 ft 420 kts 267°
2026-05-06 12:00 52.05516 15.20303 35731 ft 420 kts 267°
2026-05-06 12:00 52.05597 15.10865 35730 ft 420 kts 267°
2026-05-06 12:01 52.05672 15.01358 35733 ft 420 kts 267°
2026-05-06 12:01 52.05738 14.91870 35740 ft 422 kts 268°
2026-05-06 12:02 52.05796 14.82420 35744 ft 421 kts 267°
2026-05-06 12:02 52.05891 14.72910 35744 ft 420 kts 270°
2026-05-06 12:03 52.06377 14.63442 35760 ft 424 kts 272°
2026-05-06 12:03 52.06923 14.53957 35759 ft 422 kts 272°
2026-05-06 12:04 52.07429 14.44504 35761 ft 423 kts 271°
2026-05-06 12:04 52.07921 14.34918 35772 ft 424 kts 271°
2026-05-06 12:05 52.08397 14.25421 35772 ft 423 kts 271°
2026-05-06 12:05 52.08860 14.15942 35770 ft 424 kts 271°
2026-05-06 12:06 52.09323 14.06261 35775 ft 425 kts 271°
2026-05-06 12:06 52.09772 13.96728 35775 ft 424 kts 271°
2026-05-06 12:07 52.10213 13.87176 36085 ft 427 kts 271°
2026-05-06 12:07 52.10430 13.82368 35880 ft 430 kts 271°
2026-05-06 12:07 52.10648 13.77571 35802 ft 425 kts 271°
2026-05-06 12:08 52.11074 13.68040 35780 ft 423 kts 271°
2026-05-06 12:08 52.11490 13.58473 35776 ft 427 kts 271°
2026-05-06 12:09 52.11901 13.48897 35779 ft 426 kts 271°
2026-05-06 12:09 52.12302 13.39376 35771 ft 424 kts 271°
2026-05-06 12:10 52.12698 13.29751 35773 ft 426 kts 270°
2026-05-06 12:10 52.13084 13.20199 35780 ft 426 kts 270°
2026-05-06 12:11 52.13464 13.10609 35777 ft 426 kts 270°
2026-05-06 12:11 52.13836 13.00991 35780 ft 427 kts 270°
2026-05-06 12:12 52.14204 12.91340 35781 ft 426 kts 270°
2026-05-06 12:12 52.14560 12.81710 35778 ft 429 kts 270°
2026-05-06 12:13 52.14911 12.72043 35783 ft 428 kts 270°
2026-05-06 12:13 52.15253 12.62422 35778 ft 428 kts 270°
2026-05-06 12:14 52.15588 12.52740 35782 ft 429 kts 270°
2026-05-06 12:14 52.15916 12.43080 35777 ft 429 kts 270°
2026-05-06 12:15 52.16236 12.33406 35778 ft 430 kts 269°
2026-05-06 12:15 52.16549 12.23715 35779 ft 429 kts 269°
2026-05-06 12:16 52.16854 12.13997 35784 ft 429 kts 269°
2026-05-06 12:16 52.17149 12.04340 35769 ft 431 kts 269°
2026-05-06 12:17 52.17439 11.94578 35783 ft 432 kts 269°
2026-05-06 12:17 52.17721 11.84818 35785 ft 431 kts 269°
2026-05-06 12:18 52.17995 11.75079 35784 ft 430 kts 269°
2026-05-06 12:18 52.18258 11.65400 35788 ft 430 kts 269°
2026-05-06 12:19 52.18515 11.55673 35783 ft 432 kts 269°
2026-05-06 12:19 52.18765 11.45895 35784 ft 433 kts 270°
2026-05-06 12:20 52.19006 11.36169 35777 ft 433 kts 270°
2026-05-06 12:20 52.19239 11.26449 35788 ft 432 kts 269°
2026-05-06 12:21 52.19466 11.16628 35778 ft 433 kts 269°
2026-05-06 12:21 52.19685 11.06883 35784 ft 433 kts 269°
2026-05-06 12:22 52.19895 10.97049 35788 ft 432 kts 269°
2026-05-06 12:22 52.20095 10.87324 35794 ft 433 kts 269°
2026-05-06 12:23 52.20288 10.77550 35786 ft 433 kts 269°
2026-05-06 12:23 52.20473 10.67799 35786 ft 434 kts 269°
2026-05-06 12:24 52.20652 10.57980 35793 ft 435 kts 269°
2026-05-06 12:24 52.20822 10.48122 35786 ft 436 kts 269°
2026-05-06 12:25 52.20985 10.38291 35783 ft 435 kts 269°
2026-05-06 12:25 52.21139 10.28456 35777 ft 436 kts 268°
2026-05-06 12:26 52.21285 10.18599 35780 ft 436 kts 269°
2026-05-06 12:26 52.21421 10.08868 35778 ft 436 kts 269°
2026-05-06 12:27 52.21552 9.98921 35768 ft 437 kts 269°
2026-05-06 12:27 52.21674 9.89049 35780 ft 438 kts 269°
2026-05-06 12:28 52.21787 9.79156 35780 ft 438 kts 269°
2026-05-06 12:28 52.21892 9.69286 35792 ft 438 kts 269°
2026-05-06 12:29 52.21990 9.59370 35781 ft 438 kts 269°
2026-05-06 12:29 52.22079 9.49421 35790 ft 439 kts 269°
2026-05-06 12:30 52.22159 9.39595 35789 ft 438 kts 269°
2026-05-06 12:30 52.22232 9.29693 35794 ft 437 kts 268°
2026-05-06 12:31 52.22296 9.19776 35806 ft 438 kts 268°
2026-05-06 12:31 52.22351 9.09867 35803 ft 439 kts 268°
2026-05-06 12:32 52.22399 8.99979 35797 ft 439 kts 268°
2026-05-06 12:32 52.22439 8.90033 35806 ft 440 kts 268°
2026-05-06 12:33 52.22470 8.80103 35811 ft 440 kts 268°
2026-05-06 12:33 52.22493 8.70179 35802 ft 439 kts 268°
2026-05-06 12:34 52.22507 8.60212 35813 ft 439 kts 268°
2026-05-06 12:34 52.22513 8.50311 35814 ft 440 kts 268°
2026-05-06 12:35 52.22510 8.40374 35814 ft 440 kts 268°
2026-05-06 12:35 52.22500 8.30444 35822 ft 441 kts 268°
2026-05-06 12:36 52.22481 8.20468 35825 ft 440 kts 268°
2026-05-06 12:36 52.22453 8.10507 35827 ft 441 kts 268°
2026-05-06 12:37 52.22417 8.00522 35822 ft 440 kts 268°
2026-05-06 12:37 52.22373 7.90595 35831 ft 440 kts 268°
2026-05-06 12:38 52.22321 7.80638 35840 ft 441 kts 268°
2026-05-06 12:38 52.22259 7.70654 35845 ft 440 kts 268°
2026-05-06 12:39 52.22191 7.60724 35608 ft 439 kts 268°
2026-05-06 12:39 52.22154 7.55750 35411 ft 435 kts 268°
2026-05-06 12:39 52.22115 7.50865 35004 ft 432 kts 268°
2026-05-06 12:40 52.22073 7.45983 34325 ft 438 kts 268°
2026-05-06 12:40 52.22028 7.41048 33529 ft 444 kts 268°
2026-05-06 12:40 52.21980 7.35982 32583 ft 451 kts 269°
2026-05-06 12:40 52.21932 7.30973 31887 ft 450 kts 268°
2026-05-06 12:41 52.21880 7.25877 31286 ft 447 kts 268°
2026-05-06 12:41 52.21828 7.20830 30637 ft 445 kts 268°
2026-05-06 12:41 52.21773 7.15827 29996 ft 442 kts 269°
2026-05-06 12:41 52.21717 7.10846 29369 ft 439 kts 268°
2026-05-06 12:42 52.21755 7.05965 28756 ft 435 kts 273°
2026-05-06 12:42 52.22145 7.01077 28129 ft 432 kts 283°
2026-05-06 12:42 52.23118 6.96520 27889 ft 420 kts 295°
2026-05-06 12:42 52.24416 6.92400 27866 ft 406 kts 300°
2026-05-06 12:43 52.25991 6.88550 27667 ft 407 kts 307°
2026-05-06 12:43 52.27743 6.84937 27183 ft 412 kts 309°
2026-05-06 12:43 52.29573 6.81340 26626 ft 409 kts 310°
2026-05-06 12:43 52.31376 6.77810 26058 ft 407 kts 309°
2026-05-06 12:44 52.33168 6.74280 25488 ft 404 kts 309°
2026-05-06 12:44 52.34951 6.70740 24914 ft 401 kts 309°
2026-05-06 12:44 52.36699 6.67253 24351 ft 398 kts 309°
2026-05-06 12:44 52.38435 6.63779 23789 ft 395 kts 308°
2026-05-06 12:45 52.40168 6.60296 23226 ft 391 kts 308°
2026-05-06 12:45 52.41859 6.56887 22685 ft 386 kts 308°
2026-05-06 12:45 52.45063 6.50025 21594 ft 376 kts 301°
2026-05-06 12:46 52.46240 6.46291 21061 ft 370 kts 291°
2026-05-06 12:46 52.46953 6.42282 20538 ft 366 kts 281°
2026-05-06 12:46 52.47308 6.38154 19971 ft 365 kts 276°
2026-05-06 12:46 52.47530 6.34077 19422 ft 363 kts 274°
2026-05-06 12:47 52.47730 6.29953 18880 ft 361 kts 274°
2026-05-06 12:47 52.47924 6.25879 18348 ft 359 kts 275°
2026-05-06 12:47 52.48118 6.21822 17812 ft 357 kts 274°
2026-05-06 12:47 52.48311 6.17766 17273 ft 356 kts 275°
2026-05-06 12:48 52.48505 6.13736 16732 ft 354 kts 275°
2026-05-06 12:48 52.48697 6.09752 16203 ft 349 kts 275°
2026-05-06 12:48 52.48885 6.05821 15680 ft 345 kts 275°
2026-05-06 12:48 52.49067 6.01964 15207 ft 340 kts 275°
2026-05-06 12:49 52.49248 5.98142 14660 ft 337 kts 275°
2026-05-06 12:49 52.49427 5.94322 14145 ft 336 kts 275°
2026-05-06 12:49 52.49606 5.90507 13637 ft 335 kts 276°
2026-05-06 12:49 52.49783 5.86683 13119 ft 335 kts 276°
2026-05-06 12:50 52.49957 5.82922 12592 ft 332 kts 276°
2026-05-06 12:50 52.50129 5.79154 12106 ft 328 kts 276°
2026-05-06 12:50 52.50296 5.75479 11577 ft 328 kts 275°
2026-05-06 12:50 52.50465 5.71735 11062 ft 327 kts 276°
2026-05-06 12:51 52.50629 5.68078 10577 ft 326 kts 276°
2026-05-06 12:51 52.50793 5.64386 10240 ft 319 kts 275°
2026-05-06 12:51 52.50948 5.60857 10068 ft 306 kts 276°
2026-05-06 12:51 52.50937 5.57435 9863 ft 294 kts 262°
2026-05-06 12:52 52.50253 5.54333 9551 ft 292 kts 241°
2026-05-06 12:52 52.49187 5.51512 9254 ft 290 kts 239°
2026-05-06 12:52 52.48120 5.48702 9002 ft 290 kts 240°
2026-05-06 12:52 52.47069 5.45878 8750 ft 291 kts 240°
2026-05-06 12:53 52.46020 5.43039 8498 ft 290 kts 240°
2026-05-06 12:53 52.44974 5.40206 8244 ft 290 kts 240°
2026-05-06 12:53 52.43944 5.37420 8038 ft 289 kts 240°
2026-05-06 12:53 52.42902 5.34600 7814 ft 289 kts 239°
2026-05-06 12:54 52.41856 5.31773 7598 ft 289 kts 239°
2026-05-06 12:54 52.40824 5.28985 7379 ft 288 kts 239°
2026-05-06 12:54 52.39780 5.26172 7141 ft 286 kts 239°
2026-05-06 12:54 52.38750 5.23397 6917 ft 286 kts 239°
2026-05-06 12:55 52.37717 5.20618 6704 ft 286 kts 239°
2026-05-06 12:55 52.36687 5.17847 6466 ft 285 kts 239°
2026-05-06 12:55 52.35650 5.15064 6234 ft 284 kts 239°
2026-05-06 12:55 52.34634 5.12339 6007 ft 283 kts 239°
2026-05-06 12:56 52.33601 5.09572 5762 ft 283 kts 239°
2026-05-06 12:56 52.32548 5.06856 5529 ft 284 kts 238°
2026-05-06 12:56 52.31466 5.04155 5285 ft 283 kts 238°
2026-05-06 12:56 52.30383 5.01467 5064 ft 283 kts 238°
2026-05-06 12:57 52.29304 4.98786 4822 ft 283 kts 238°
2026-05-06 12:57 52.28225 4.96105 4594 ft 282 kts 237°
2026-05-06 12:57 52.27159 4.93460 4366 ft 281 kts 238°
2026-05-06 12:57 52.26085 4.90818 4145 ft 280 kts 238°
2026-05-06 12:58 52.25011 4.88190 3928 ft 279 kts 238°
2026-05-06 12:58 52.23933 4.85548 3688 ft 279 kts 238°
2026-05-06 12:58 52.22860 4.82914 3463 ft 279 kts 238°
2026-05-06 12:58 52.21793 4.80303 3237 ft 274 kts 238°
2026-05-06 12:59 52.20741 4.77728 3000 ft 268 kts 238°
2026-05-06 12:59 52.19719 4.75219 2774 ft 263 kts 238°
2026-05-06 12:59 52.18729 4.72784 2551 ft 259 kts 238°
2026-05-06 12:59 52.17742 4.70358 2327 ft 255 kts 238°
2026-05-06 13:00 52.16769 4.67979 2113 ft 251 kts 238°
2026-05-06 13:00 52.15805 4.65639 1988 ft 242 kts 238°
2026-05-06 13:00 52.14881 4.63416 1987 ft 234 kts 238°
2026-05-06 13:00 52.13978 4.61225 2000 ft 233 kts 241°
2026-05-06 13:01 52.13468 4.58770 1984 ft 228 kts 272°
2026-05-06 13:01 52.13820 4.56349 1981 ft 218 kts 307°
2026-05-06 13:01 52.14875 4.54698 2000 ft 209 kts 332°
2026-05-06 13:01 52.16103 4.53451 1989 ft 208 kts 333°
2026-05-06 13:02 52.17287 4.52232 1984 ft 194 kts 334°
2026-05-06 13:02 52.18483 4.51606 1994 ft 174 kts
2026-05-06 13:02 52.19583 4.52259 2017 ft 169 kts 33°
2026-05-06 13:02 52.20591 4.53309 1993 ft 171 kts 38°
2026-05-06 13:03 52.21376 4.54767 2000 ft 171 kts 53°
2026-05-06 13:03 52.22090 4.56332 1996 ft 172 kts 51°
2026-05-06 13:03 52.22776 4.57909 2000 ft 171 kts 56°
2026-05-06 13:03 52.23423 4.59556 1996 ft 169 kts 56°
2026-05-06 13:04 52.24031 4.61113 1834 ft 163 kts 56°
2026-05-06 13:04 52.24618 4.62631 1611 ft 149 kts 55°
2026-05-06 13:04 52.25145 4.63992 1399 ft 139 kts 55°
2026-05-06 13:04 52.25647 4.65288 1217 ft 133 kts 54°
2026-05-06 13:05 52.26147 4.66594 1052 ft 137 kts 57°
2026-05-06 13:05 52.26660 4.67871 864 ft 136 kts 58°
2026-05-06 13:05 52.27167 4.69247 673 ft 140 kts 57°
2026-05-06 13:05 52.27693 4.70578 505 ft 140 kts 54°
2026-05-06 13:06 52.28220 4.71941 288 ft 142 kts 59°
2026-05-06 13:06 52.28737 4.73286 77 ft 144 kts 54°
2026-05-06 13:06 52.29262 4.74632 1 ft 129 kts 57°
2026-05-06 13:06 52.29613 4.75554 -3 ft 67 kts 58°
2026-05-06 13:07 52.29841 4.76139 -3 ft 57 kts 58°
2026-05-06 13:07 52.30013 4.76522 -3 ft 27 kts 34°
2026-05-06 13:07 52.30121 4.76620 -2 ft 15 kts 28°
2026-05-06 13:07 52.30175 4.76668 -3 ft 4 kts 28°
2026-05-06 13:08 52.30190 4.76681 -2 ft 1 kts 28°
2026-05-06 13:08 52.30200 4.76690 -2 ft 1 kts 28°
2026-05-06 13:08 52.30224 4.76711 -2 ft 8 kts 28°
2026-05-06 13:08 52.30293 4.76785 0 ft 15 kts 49°
2026-05-06 13:09 52.30363 4.76957 0 ft 20 kts 57°
2026-05-06 13:09 52.30430 4.77126 4 ft 15 kts 58°
2026-05-06 13:09 52.30485 4.77270 6 ft 14 kts 59°
2026-05-06 13:09 52.30539 4.77336 7 ft 9 kts 355°
2026-05-06 13:10 52.30600 4.77284 8 ft 9 kts 331°
2026-05-06 13:10 52.30662 4.77275 9 ft 6 kts
2026-05-06 13:10 52.30692 4.77278 10 ft 2 kts
2026-05-06 13:10 52.30702 4.77279 10 ft 0 kts